[Iaude] MPEC E48: 2024 EG1 [a=2.33,e=0.52,i=13.6,H=22.3]
    mpec at cfa.harvard.edu 
    mpec at cfa.harvard.edu
       
    Tue Mar  5 01:37:50 EST 2024
    
    
  
M.P.E.C. 2024-E48                                 Issued 2024 March 5, 06:36 UT
     The Minor Planet Electronic Circulars contain information on unusual
         minor planets, routine data on comets and natural satellites,
         and occasional editorial announcements.  They are published
    on behalf of Division F of the International Astronomical Union by the
          Minor Planet Center, Smithsonian Astrophysical Observatory,
                          Cambridge, MA 02138, U.S.A.
			  
             Prepared using the Tamkin Foundation Computer Network
                              MPC at CFA.HARVARD.EDU
            URL https://www.minorplanetcenter.net/    ISSN 1523-6714
                                    2024 EG1                                    
Observations:
     K24E01G*1C2024 03 03.27038008 44 48.102+55 16 15.74         20.94GVEE048G96
     K24E01G 1C2024 03 03.27667308 44 48.890+55 15 52.42         20.95GVEE048G96
     K24E01G 1C2024 03 03.28296008 44 49.693+55 15 29.23         20.52GVEE048G96
     K24E01G 1C2024 03 03.28927608 44 50.424+55 15 05.36         20.79GVEE048G96
     K24E01G KC2024 03 03.31913408 44 54.132+55 13 14.09         20.93GVEE048I52
     K24E01G KC2024 03 03.32086608 44 54.359+55 13 07.82         20.90GVEE048I52
     K24E01G KC2024 03 03.32259108 44 54.568+55 13 01.24         21.28GVEE048I52
     K24E01G KC2024 03 03.32431708 44 54.798+55 12 54.76         21.09GVEE048I52
     K24E01G KB2024 03 03.85485 08 46 16.358+54 40 16.75         20.6 GXEE048J57
     K24E01G KB2024 03 03.87027 08 46 18.257+54 39 19.76         20.2 GXEE048J57
     K24E01G KC2024 03 04.09137808 46 51.37 +54 25 29.3          20.8 GVEE048H21
     K24E01G KC2024 03 04.09417608 46 51.74 +54 25 18.5          20.9 GVEE048H21
     K24E01G KC2024 03 04.09697308 46 52.04 +54 25 08.7          20.6 GVEE048H21
     K24E01G  C2024 03 04.14716608 46 59.646+54 22 02.43         20.6 GVEE048H01
     K24E01G  C2024 03 04.15633008 47 00.785+54 21 28.30         20.7 GVEE048H01
     K24E01G  C2024 03 04.16436208 47 01.777+54 20 58.59         20.6 GVEE048H01
     K24E01G  C2024 03 04.17127008 47 02.610+54 20 33.14         20.5 GVEE048H01
     K24E01G KC2024 03 05.10221408 49 22.49 +53 20 30.0          20.6 GXEE048858
     K24E01G KC2024 03 05.11059208 49 23.55 +53 19 58.1          20.8 GXEE048858
     K24E01G KC2024 03 05.11890808 49 24.64 +53 19 25.6          20.5 GXEE048858
     K24E01G  C2024 03 05.24212508 49 40.317+53 11 22.98         20.5 GVEE048H01
     K24E01G  C2024 03 05.25161308 49 41.508+53 10 44.95         20.5 GVEE048H01
     K24E01G  C2024 03 05.26432508 49 43.116+53 09 54.07         20.5 GVEE048H01
     K24E01G  C2024 03 05.26778608 49 43.567+53 09 39.85         20.5 GVEE048H01
Observer details:
858 Tebbutt Observatory, Edgewood.  Observer F. B. Zoltowski.  0.51-m f/8.1
    Schmidt-Cassegrain + CCD.
G96 Mt. Lemmon Survey.  Observer K. W. Wierzchos.  Measurers T. Beuden, V. F.
    Carvajal, D. Fay, J. B. Fazekas, D. C. Fuls, A. R. Gibbs, A. D. Grauer, H.
    Groeller, J. K. Hogan, R. A. Kowalski, S. M. Larson, G. J. Leonard, D.
    Rankin, R. L. Seaman, F. C. Shelly, K. W. Wierzchos.  1.5-m reflector +
    10K CCD.
H01 Magdalena Ridge Observatory, Socorro.  Observers W. H. Ryan, E. V. Ryan.
    Measurer W. H. Ryan.  2.4-m f/8.9 Ritchey-Chretien + CCD.
H21 Astronomical Research Observatory, Westfield.  Observer R. Holmes.
    Measurers T. Linder, R. Holmes, L. Horn.  0.76-m f/3.0 astrograph + CCD.
I52 Steward Observatory, Mt. Lemmon Station.  Observers T. Beuden, J. K.
    Hogan.  Measurers T. Beuden, V. F. Carvajal, D. Fay, J. B. Fazekas, D. C.
    Fuls, A. R. Gibbs, A. D. Grauer, H. Groeller, J. K. Hogan, R. A. Kowalski,
    S. M. Larson, G. J. Leonard, D. Rankin, R. L. Seaman, F. C. Shelly, K. W.
    Wierzchos.  1.0-m prime focus + CCD.
J57 Centro Astronomico Alto Turia, Valencia.  Observer A. Fornas.  Measurers
    A. Fornas, G. Fornas, E. Arce, V. Mas.  0.43-m f/6.8 Reflector CDK + CMO.
Orbital elements:
2024 EG1                                                 Earth MOID = 0.1418 AU
Epoch 2024 Mar. 31.0 TT = JDT 2460400.5                 MPC                     
M   5.45229              (2000.0)            P               Q                  
n   0.27719356     Peri.  160.03616     -0.96064070     -0.27731508             
a   2.3295960      Node     3.97283     +0.21202104     -0.76984716             
e   0.5175429      Incl.   13.60993     +0.17948963     -0.57483188             
P   3.56           H   22.36          G   0.15           U   8                  
Residuals in seconds of arc
240303 G96  0.2-  0.3+    240303 J57  0.2-  0.0     240304 H01  0.4-  0.5+
240303 G96  0.1-  0.2+    240303 J57  0.6-  0.3-    240305 858  0.0   0.1+
240303 G96  0.2+  0.2+    240304 H21  0.1+  0.0     240305 858  0.3-  0.3+
240303 G96  0.1-  0.2-    240304 H21  0.3+  0.4-    240305 858  0.2-  0.2-
240303 I52  0.0   0.3-    240304 H21  0.2-  0.1+    240305 H01  0.0   0.0
240303 I52  0.1+  0.0     240304 H01  0.1-  0.0     240305 H01  0.0   0.0
240303 I52  0.0   0.2-    240304 H01  0.1-  0.1-    240305 H01  0.0   0.2+
240303 I52  0.2+  0.2-    240304 H01  0.2-  0.1+    240305 H01  0.1+  0.1-
Ephemeris:
2024 EG1                 a,e,i = 2.33, 0.52, 14                  q = 1.1239
Date    TT    R. A. (2000) Decl.     Delta      r    Elong.  Phase     V
2024 02 04    08 04 44.0 +69 15 55   0.3150  1.1996   126.4    41.4    21.9
...
2024 02 19    08 17 23.4 +65 01 10   0.2583  1.1510   123.4    45.8    21.5
...
2024 02 27    08 32 36.4 +59 58 23   0.2308  1.1346   123.7    46.5    21.2
...
2024 03 04    08 46 36.2 +54 31 08   0.2126  1.1272   125.0    46.1    21.0
2024 03 05    08 49 04.7 +53 27 08   0.2098  1.1263   125.4    45.9    21.0
2024 03 06    08 51 35.0 +52 20 18   0.2072  1.1256   125.7    45.7    20.9
...
2024 03 12    09 07 06.1 +44 39 01   0.1937  1.1240   128.3    44.0    20.7
...
2024 03 20    09 28 25.2 +31 58 42   0.1843  1.1285   132.4    40.6    20.5
...
2024 04 04    10 07 27.3 +06 16 03   0.2032  1.1571   137.0    36.1    20.7
A. U. Tomatic                (C) Copyright 2024 MPC           M.P.E.C. 2024-E48
    
    
More information about the Iaude
mailing list